[[{"header":{"parameterUnit":"m.s-1","parameterCategory":1,"la1":30.2991,"la2":30.254,"lo1":-89.0895,"lo2":-89.0444,"dy":0.0017,"dx":0.0017,"nx":28,"ny":28,"refTime":"2025-03-21T03:00:00:Z","depth":0,"parameterNumber":2,"parameterNumberName":"U-component_of_WINDS"},"data":[0,0,0,0,0,0,0,0,0,0,0,0,0,0,0,0,0,0,0,0,0,0,0,0,0,0,0,0,0,0,0,0,0,0,0,0,0,0,0,0,0,0,0,0,0,0,0,0,0,0,0,0,0,0,0,0,0,0,1.3743,1.3745,0,1.3864,1.3866,1.3867,1.3901,1.39,1.39,1.3899,1.402,1.4024,1.4028,0,0,0,0,0,0,0,0,0,0,0,0,0,1.3537,1.3541,1.3743,1.3745,1.3746,1.3864,1.3866,1.3868,1.3901,1.39,1.3899,1.3899,1.4019,1.4023,1.4028,0,0,0,0,0,0,0,0,0,0,0,0,0,1.3639,1.3542,1.3743,1.3777,1.3782,1.3864,1.3866,1.3868,1.3901,1.39,1.3899,1.3898,1.4017,1.4023,1.4029,1.4084,0,0,1.4046,1.4049,0,0,0,0,0,0,0,0,1.3633,1.3647,1.3771,1.3775,1.378,1.3867,1.3838,1.394,1.3901,1.3856,1.3899,1.3898,1.397,1.3979,1.4004,1.409,1.4095,1.4047,1.405,1.4053,1.4054,0,0,0,0,0,0,0,1.3626,1.3641,1.3791,1.3772,1.3778,1.3785,1.3799,1.3857,1.3917,1.386,1.3862,1.3876,1.3972,1.3998,1.4007,1.4097,1.4047,1.4052,1.4055,1.4057,1.4233,1.4234,0,0,0,0,0,0,1.3614,1.3635,1.3787,1.3795,1.3703,1.379,1.3805,1.384,1.3916,1.3927,1.3877,1.3878,1.3989,1.4,1.4011,1.4081,1.4053,1.4058,1.4061,1.4232,1.4233,1.4235,0,0,0,0,0,0,1.3609,1.3627,1.3782,1.3716,1.3736,1.3795,1.3833,1.3843,1.3869,1.393,1.394,1.3894,1.3989,1.4003,1.4066,1.4085,1.4061,1.4066,1.423,1.4232,1.4234,1.422,0,0,0,0,0,0,1.3603,1.3625,1.3648,1.3716,1.374,1.3836,1.3835,1.3846,1.388,1.3881,1.3948,1.3958,1.3989,1.4057,1.4072,1.4093,1.407,1.4229,1.4231,1.4233,1.4219,1.4221,1.4223,0,0,0,0,0,1.3596,1.3639,1.3649,1.3667,1.377,1.3837,1.385,1.3886,1.3881,1.3904,1.3942,1.3956,1.4081,1.4063,1.408,1.4103,1.4228,1.4231,1.4233,1.4218,1.4221,1.4223,0,0,0,0,0,0,1.3571,1.3649,1.3661,1.3728,1.3775,1.3843,1.3872,1.3888,1.3938,1.3937,1.3979,1.3993,1.4053,1.4084,1.4063,1.416,1.4155,1.4161,1.4137,1.4141,1.4142,1.4133,1.4075,0,0,0,0,0,1.3573,1.3623,1.3687,1.374,1.3764,1.3814,1.3844,1.3868,1.3919,1.3939,1.3982,1.403,1.408,1.4112,1.4162,1.4224,1.4238,1.4248,1.425,1.4252,1.4256,1.429,1.4294,1.4243,1.4243,1.4243,0,0,1.3578,1.3627,1.3656,1.3736,1.3776,1.3825,1.3831,1.3882,1.3918,1.3947,1.4008,1.4041,1.4097,1.4159,1.4189,1.4188,1.4273,1.4255,1.4256,1.426,1.4293,1.4298,1.4302,1.4245,1.4245,1.4245,0,0,1.3613,1.3655,1.3703,1.3743,1.3804,1.3837,1.3848,1.3913,1.3936,1.3998,1.402,1.4063,1.4149,1.4187,1.4218,1.4266,1.4279,1.4281,1.4291,1.4323,1.4327,1.4331,1.4346,1.4352,1.4285,1.4285,1.4285,0,1.3611,1.3687,1.3726,1.3776,1.381,1.3839,1.3887,1.3923,1.3996,1.4018,1.4016,1.4123,1.4163,1.4234,1.4245,1.427,1.4283,1.4273,1.4324,1.4328,1.4332,1.4347,1.4353,1.4285,1.4285,1.4285,1.4285,0,1.3682,1.3733,1.3765,1.3835,1.3873,1.3922,1.3966,1.3999,1.4019,1.4052,1.4114,1.4163,1.4222,1.424,1.426,1.4314,1.4311,1.4316,1.431,1.4336,1.435,1.4357,1.4284,1.4284,1.4284,1.4285,0,0,1.3704,1.3795,1.3805,1.3837,1.3905,1.3945,1.3995,1.4053,1.408,1.4129,1.417,1.4242,1.4246,1.4281,1.4306,1.4334,1.4366,1.4335,1.4337,1.4338,1.4426,1.4422,1.4428,1.4376,1.4377,1.4379,1.4421,0,1.3746,1.3837,1.3872,1.3945,1.3992,1.4019,1.4062,1.4107,1.4139,1.4182,1.4217,1.4266,1.4269,1.429,1.4319,1.4356,1.4384,1.4354,1.4413,1.4415,1.4398,1.4436,1.4432,1.447,1.4427,1.4428,1.4429,0,1.3807,1.3857,1.3935,1.3996,1.4017,1.4055,1.4111,1.4153,1.4204,1.4225,1.4263,1.4286,1.4337,1.4329,1.4398,1.4377,1.4403,1.4425,1.4427,1.4433,1.4423,1.4442,1.4483,1.4488,1.4439,1.4438,1.4438,0,1.3814,1.3901,1.3958,1.3985,1.4058,1.4084,1.4115,1.4166,1.4198,1.4246,1.4268,1.4321,1.435,1.439,1.4425,1.4416,1.4491,1.4486,1.4508,1.4507,1.4522,1.4521,1.4567,1.4541,1.4541,1.4541,1.4541,0,1.3857,1.3903,1.3962,1.3997,1.4049,1.4089,1.4139,1.4172,1.4216,1.4257,1.4284,1.4321,1.4366,1.4409,1.4437,1.449,1.4503,1.452,1.4526,1.4517,1.4515,1.4534,1.4532,1.4542,1.4542,1.4542,1.4541,0,1.3873,1.3915,1.3979,1.4043,1.406,1.4095,1.4149,1.4183,1.4216,1.4267,1.4281,1.4332,1.4383,1.4423,1.449,1.4509,1.4564,1.4572,1.4547,1.455,1.4569,1.4566,1.4629,1.4638,1.4606,1.4607,1.4607,0,1.3897,1.3933,1.4001,1.4031,1.4062,1.411,1.4143,1.4183,1.4216,1.4277,1.4303,1.4357,1.4402,1.4483,1.4525,1.4575,1.4584,1.4602,1.4592,1.458,1.4583,1.458,1.4583,1.4603,1.4603,1.4603,1.4604,0,1.3935,1.3954,1.4001,1.4056,1.4095,1.4139,1.4184,1.4207,1.4254,1.429,1.4344,1.4378,1.4447,1.4499,1.4554,1.4585,1.4602,1.4607,1.4614,1.4604,1.4588,1.4596,1.4549,1.4605,1.4605,1.4605,1.4605,1.4605,1.3955,1.3988,1.4041,1.4092,1.413,1.4171,1.4206,1.4243,1.4289,1.4348,1.4368,1.4423,1.4472,1.4548,1.4579,1.4621,1.4622,1.4633,1.4636,1.4638,1.4636,1.4582,1.4631,1.4631,1.4632,1.4632,1.4632,0,1.3993,1.4028,1.4075,1.4138,1.4178,1.4191,1.4241,1.4273,1.4321,1.4366,1.441,1.447,1.4521,1.4566,1.4619,1.4643,1.4652,1.4656,1.4654,1.466,1.4633,1.4621,1.4648,1.4648,1.4648,1.4648,1.4648,1.4648,1.4018,1.4073,1.4098,1.4172,1.4207,1.4261,1.4288,1.4326,1.4362,1.4428,1.4471,1.45,1.4545,1.46,1.4647,1.4659,1.4676,1.4677,1.4691,1.4665,1.4662,1.466,1.4649,1.4681,1.4681,1.4715,1.4715,1.4715]},{"header":{"parameterUnit":"m.s-1","parameterCategory":1,"la1":30.2991,"la2":30.254,"lo1":-89.0895,"lo2":-89.0444,"dy":0.0017,"dx":0.0017,"nx":28,"ny":28,"refTime":"2025-03-21T03:00:00:Z","depth":0,"parameterNumber":3,"parameterNumberName":"V-component_of_WINDS"},"data":[0,0,0,0,0,0,0,0,0,0,0,0,0,0,0,0,0,0,0,0,0,0,0,0,0,0,0,0,0,0,0,0,0,0,0,0,0,0,0,0,0,0,0,0,0,0,0,0,0,0,0,0,0,0,0,0,0,0,4.0255,4.0255,0,4.0262,4.0262,4.0262,4.0215,4.0213,4.0212,4.0211,4.0217,4.0219,4.022,0,0,0,0,0,0,0,0,0,0,0,0,0,4.0198,4.0199,4.0255,4.0255,4.0255,4.0262,4.0262,4.0262,4.0215,4.0213,4.0212,4.021,4.0217,4.0219,4.022,0,0,0,0,0,0,0,0,0,0,0,0,0,4.0216,4.02,4.0255,4.0232,4.023,4.0262,4.0262,4.0262,4.0215,4.0213,4.0211,4.0209,4.0216,4.0218,4.022,4.0274,0,0,4.0227,4.0228,0,0,0,0,0,0,0,0,4.0215,4.0218,4.0235,4.0234,4.0232,4.0236,4.0244,4.0266,4.0216,4.0221,4.0211,4.0208,4.0225,4.0226,4.0232,4.0274,4.0275,4.0227,4.0228,4.0229,4.023,0,0,0,0,0,0,0,4.0214,4.0217,4.0258,4.0236,4.0234,4.0221,4.0221,4.0248,4.0234,4.022,4.0217,4.0219,4.0223,4.023,4.0232,4.0275,4.0227,4.0229,4.023,4.0231,4.036,4.0362,0,0,0,0,0,0,4.0216,4.0216,4.0257,4.0258,4.0218,4.0224,4.0224,4.0236,4.0234,4.0231,4.022,4.0216,4.0227,4.0229,4.0232,4.0293,4.0229,4.0231,4.0233,4.0357,4.036,4.0362,0,0,0,0,0,0,4.0214,4.022,4.0257,4.0236,4.024,4.0227,4.0241,4.0238,4.0244,4.0234,4.0231,4.023,4.0226,4.0229,4.0264,4.0293,4.0232,4.0234,4.0355,4.0358,4.0361,4.0417,0,0,0,0,0,0,4.0213,4.022,4.024,4.0237,4.0241,4.0289,4.0243,4.0239,4.0248,4.0243,4.0242,4.024,4.0225,4.0261,4.0266,4.0294,4.0236,4.0352,4.0356,4.036,4.0412,4.0421,4.0429,0,0,0,0,0,4.0211,4.0256,4.0242,4.0247,4.0267,4.0291,4.0294,4.0276,4.0251,4.0271,4.0264,4.024,4.0289,4.0265,4.027,4.03,4.035,4.0355,4.036,4.0408,4.042,4.0429,0,0,0,0,0,0,4.0262,4.0255,4.0239,4.0284,4.0289,4.0283,4.0308,4.0288,4.03,4.0295,4.0272,4.0272,4.031,4.0309,4.0282,4.0351,4.0315,4.0321,4.035,4.0361,4.0369,4.0368,4.0238,0,0,0,0,0,4.0279,4.03,4.0292,4.0332,4.0335,4.0322,4.0331,4.0317,4.0321,4.0322,4.0318,4.0322,4.0339,4.035,4.0364,4.0412,4.041,4.0435,4.0444,4.0451,4.0456,4.048,4.049,4.0378,4.0378,4.0378,0,0,4.0313,4.0311,4.0326,4.0342,4.0344,4.0365,4.0323,4.0348,4.0363,4.0326,4.0358,4.0355,4.0358,4.04,4.0418,4.0399,4.0487,4.0457,4.0463,4.0464,4.0486,4.0496,4.0506,4.0381,4.0381,4.038,0,0,4.0386,4.0387,4.042,4.0423,4.0427,4.0417,4.0425,4.0423,4.0419,4.0451,4.0424,4.0441,4.047,4.0473,4.0479,4.0552,4.053,4.0558,4.0602,4.0625,4.0634,4.0642,4.0667,4.0676,4.0563,4.0563,4.0563,0,4.0428,4.0459,4.044,4.0466,4.0473,4.0441,4.0474,4.0477,4.0485,4.0491,4.0471,4.0506,4.0506,4.0546,4.0564,4.057,4.0578,4.0557,4.0634,4.0642,4.0649,4.0672,4.0682,4.0566,4.0566,4.0566,4.0565,0,4.0509,4.0531,4.0558,4.0566,4.0577,4.0606,4.0591,4.0604,4.0589,4.0581,4.0613,4.0612,4.0625,4.0634,4.062,4.0673,4.0661,4.0639,4.0602,4.0663,4.0685,4.0694,4.0571,4.057,4.0569,4.0568,0,0,4.0614,4.0611,4.0621,4.0624,4.0625,4.0642,4.0669,4.0682,4.0693,4.07,4.0722,4.0747,4.0725,4.0731,4.0717,4.0738,4.0794,4.0712,4.0711,4.0726,4.0851,4.0867,4.0878,4.078,4.0782,4.0783,4.085,0,4.0684,4.0731,4.0714,4.0762,4.0781,4.0751,4.0775,4.0778,4.0771,4.0786,4.0779,4.0797,4.0768,4.0771,4.0791,4.0784,4.0819,4.0779,4.0799,4.08,4.0798,4.089,4.0907,4.0971,4.0859,4.086,4.0861,0,4.0771,4.0781,4.0831,4.0828,4.0836,4.0857,4.0867,4.0883,4.0885,4.0879,4.0886,4.0867,4.0893,4.0858,4.0893,4.0865,4.0873,4.0871,4.0873,4.0873,4.0833,4.0891,4.0991,4.1,4.0875,4.0874,4.0873,0,4.0841,4.0867,4.0899,4.0903,4.0901,4.0917,4.0916,4.0917,4.0926,4.0935,4.094,4.0952,4.0958,4.0967,4.0952,4.0928,4.0989,4.0952,4.0983,4.0984,4.0996,4.0995,4.1097,4.1004,4.1004,4.1003,4.1003,0,4.092,4.0951,4.093,4.095,4.0984,4.0965,4.0998,4.0995,4.0995,4.1013,4.0989,4.1006,4.0985,4.1001,4.0989,4.1019,4.1022,4.1017,4.1013,4.1019,4.1019,4.1022,4.1017,4.1006,4.1005,4.1005,4.1004,0,4.1002,4.099,4.1023,4.1019,4.1018,4.1043,4.1038,4.1056,4.1048,4.1072,4.1076,4.1063,4.108,4.1066,4.1082,4.1074,4.1114,4.1104,4.1113,4.111,4.1141,4.1137,4.1247,4.126,4.116,4.1161,4.1161,0,4.1053,4.1076,4.1074,4.1084,4.1085,4.1103,4.1111,4.1093,4.1103,4.1107,4.1124,4.1139,4.1149,4.1178,4.1169,4.1182,4.1172,4.1209,4.1173,4.1177,4.117,4.1169,4.117,4.1216,4.1217,4.1218,4.1219,0,4.1143,4.1136,4.1149,4.116,4.1171,4.1179,4.1185,4.1195,4.1176,4.1189,4.1205,4.1214,4.123,4.1245,4.1254,4.1253,4.1233,4.123,4.1238,4.1243,4.1246,4.1243,4.1131,4.1228,4.1227,4.1226,4.1226,4.1225,4.121,4.1229,4.123,4.1245,4.1248,4.1254,4.127,4.1264,4.1278,4.1289,4.1278,4.1298,4.1299,4.131,4.1312,4.1327,4.1311,4.1322,4.1325,4.1328,4.1331,4.1245,4.1329,4.1328,4.1328,4.1328,4.1328,0,4.1298,4.1297,4.1311,4.132,4.1332,4.1312,4.1318,4.1329,4.1347,4.135,4.1361,4.138,4.1394,4.1387,4.1399,4.1412,4.1403,4.1416,4.1414,4.1414,4.1346,4.1337,4.1423,4.1423,4.1423,4.1423,4.1423,4.1423,4.1345,4.1375,4.1367,4.1398,4.1397,4.1416,4.1421,4.1426,4.1428,4.145,4.1462,4.1457,4.1456,4.1468,4.1479,4.1477,4.1482,4.1498,4.1492,4.1428,4.1419,4.141,4.1402,4.15,4.15,4.1559,4.1559,4.156]}]]